CEB923 RJFF-RPLL

Flight info

Callsign CEB923
Flight time 1h 30m
Altitude 38000
Route BERSA OMUTA HKC ENPAD OLSER ONC SAKON DCT POLIO POLIO5R
Aircraft A20N/M-SDE2E3FGHIJ1RWXY/LB1

Departure

Time 2026-05-07 13:31
Airport Fukuoka Airport (RJFF)

Arrival

Time 2026-05-07 15:01
Airport Ninoy Aquino International Airport (RPLL)
Time Latitude Longitude Altitude Speed Heading
2026-05-07 12:38 33.58565 130.44505 43 ft 0 kts 240°
2026-05-07 13:12 33.58572 130.44519 43 ft 2 kts 239°
2026-05-07 13:12 33.58580 130.44536 43 ft 2 kts 240°
2026-05-07 13:12 33.58587 130.44551 43 ft 2 kts 240°
2026-05-07 13:13 33.58595 130.44566 43 ft 2 kts 240°
2026-05-07 13:13 33.58602 130.44583 43 ft 2 kts 239°
2026-05-07 13:13 33.58610 130.44598 43 ft 2 kts 240°
2026-05-07 13:13 33.58614 130.44609 43 ft 2 kts 237°
2026-05-07 13:14 33.58625 130.44621 43 ft 2 kts 211°
2026-05-07 13:14 33.58639 130.44627 43 ft 2 kts 189°
2026-05-07 13:14 33.58654 130.44627 43 ft 2 kts 167°
2026-05-07 13:14 33.58664 130.44624 43 ft 0 kts 152°
2026-05-07 13:15 33.58670 130.44620 43 ft 0 kts 149°
2026-05-07 13:15 33.58671 130.44620 43 ft 0 kts 149°
2026-05-07 13:17 33.58669 130.44621 43 ft 0 kts 149°
2026-05-07 13:17 33.58654 130.44632 43 ft 4 kts 148°
2026-05-07 13:17 33.58630 130.44649 43 ft 5 kts 149°
2026-05-07 13:17 33.58578 130.44684 43 ft 11 kts 150°
2026-05-07 13:18 33.58505 130.44734 43 ft 12 kts 150°
2026-05-07 13:18 33.58426 130.44788 43 ft 13 kts 149°
2026-05-07 13:18 33.58345 130.44844 43 ft 13 kts 150°
2026-05-07 13:18 33.58259 130.44900 43 ft 14 kts 150°
2026-05-07 13:19 33.58170 130.44961 43 ft 14 kts 150°
2026-05-07 13:19 33.58080 130.45024 43 ft 15 kts 150°
2026-05-07 13:19 33.57987 130.45088 43 ft 15 kts 149°
2026-05-07 13:19 33.57914 130.45137 43 ft 3 kts 149°
2026-05-07 13:20 33.57912 130.45138 43 ft 0 kts 149°
2026-05-07 13:24 33.57901 130.45148 43 ft 4 kts 145°
2026-05-07 13:24 33.57852 130.45189 43 ft 10 kts 142°
2026-05-07 13:25 33.57819 130.45224 43 ft 5 kts 137°
2026-05-07 13:25 33.57800 130.45265 43 ft 6 kts 91°
2026-05-07 13:25 33.57803 130.45322 43 ft 7 kts 103°
2026-05-07 13:25 33.57768 130.45371 43 ft 8 kts 144°
2026-05-07 13:26 33.57709 130.45412 43 ft 10 kts 152°
2026-05-07 13:26 33.57640 130.45413 43 ft 10 kts 219°
2026-05-07 13:26 33.57586 130.45371 43 ft 10 kts 175°
2026-05-07 13:26 33.57518 130.45409 43 ft 11 kts 149°
2026-05-07 13:27 33.57453 130.45453 43 ft 12 kts 150°
2026-05-07 13:27 33.57395 130.45505 43 ft 7 kts 122°
2026-05-07 13:27 33.57394 130.45570 43 ft 8 kts 66°
2026-05-07 13:27 33.57424 130.45639 43 ft 9 kts 61°
2026-05-07 13:28 33.57441 130.45676 43 ft 0 kts 60°
2026-05-07 13:28 33.57442 130.45676 43 ft 0 kts 60°
2026-05-07 13:28 33.57448 130.45688 43 ft 2 kts 60°
2026-05-07 13:28 33.57454 130.45702 43 ft 0 kts 60°
2026-05-07 13:29 33.57456 130.45706 43 ft 1 kts 60°
2026-05-07 13:30 33.57471 130.45737 43 ft 9 kts 59°
2026-05-07 13:30 33.57500 130.45796 43 ft 4 kts 53°
2026-05-07 13:30 33.57528 130.45795 43 ft 5 kts 334°
2026-05-07 13:30 33.57568 130.45769 43 ft 13 kts 330°
2026-05-07 13:31 33.57893 130.45549 43 ft 91 kts 330°
2026-05-07 13:31 33.58646 130.45035 44 ft 153 kts 330°
2026-05-07 13:31 33.59611 130.44391 531 ft 160 kts 330°
2026-05-07 13:31 33.60586 130.43741 1182 ft 163 kts 327°
2026-05-07 13:32 33.61565 130.43066 1846 ft 165 kts 325°
2026-05-07 13:32 33.62590 130.42351 2335 ft 180 kts 325°
2026-05-07 13:32 33.63729 130.41560 2808 ft 198 kts 329°
2026-05-07 13:32 33.65138 130.41174 3238 ft 227 kts
2026-05-07 13:33 33.66656 130.41872 3781 ft 249 kts 39°
2026-05-07 13:33 33.67718 130.43567 4449 ft 262 kts 62°
2026-05-07 13:33 33.68579 130.45554 5041 ft 280 kts 65°
2026-05-07 13:33 33.69014 130.47841 5743 ft 288 kts 95°
2026-05-07 13:34 33.68474 130.50093 6665 ft 284 kts 124°
2026-05-07 13:34 33.65426 130.52920 8288 ft 285 kts 156°
2026-05-07 13:34 33.63645 130.53961 9042 ft 290 kts 160°
2026-05-07 13:35 33.61755 130.54906 9610 ft 294 kts 162°
2026-05-07 13:35 33.59867 130.55829 9917 ft 296 kts 161°
2026-05-07 13:35 33.57951 130.56772 9973 ft 296 kts 161°
2026-05-07 13:35 33.56053 130.57716 9991 ft 295 kts 162°
2026-05-07 13:36 33.54102 130.58543 9994 ft 293 kts 166°
2026-05-07 13:36 33.52173 130.59255 9999 ft 293 kts 167°
2026-05-07 13:36 33.50219 130.59964 9993 ft 293 kts 167°
2026-05-07 13:36 33.48245 130.60692 9989 ft 293 kts 167°
2026-05-07 13:37 33.46285 130.61426 10036 ft 297 kts 167°
2026-05-07 13:37 33.44279 130.62181 10396 ft 311 kts 166°
2026-05-07 13:37 33.42175 130.62976 10782 ft 329 kts 166°
2026-05-07 13:37 33.39934 130.63826 11254 ft 343 kts 166°
2026-05-07 13:38 33.37629 130.64708 12002 ft 347 kts 166°
2026-05-07 13:38 33.35333 130.65591 12768 ft 349 kts 167°
2026-05-07 13:38 33.33031 130.66489 13503 ft 351 kts 167°
2026-05-07 13:38 33.30707 130.67387 14206 ft 353 kts 167°
2026-05-07 13:39 33.28373 130.68285 14877 ft 356 kts 167°
2026-05-07 13:39 33.25989 130.69196 15544 ft 359 kts 168°
2026-05-07 13:39 33.23604 130.70105 16144 ft 364 kts 168°
2026-05-07 13:39 33.21188 130.71022 16695 ft 369 kts 168°
2026-05-07 13:40 33.18727 130.71956 17303 ft 372 kts 168°
2026-05-07 13:40 33.16272 130.72888 17770 ft 374 kts 168°
2026-05-07 13:40 33.13765 130.73839 18316 ft 378 kts 168°
2026-05-07 13:40 33.11245 130.74588 18903 ft 375 kts 176°
2026-05-07 13:41 33.08633 130.74887 19436 ft 372 kts 185°
2026-05-07 13:41 33.06059 130.74741 19967 ft 372 kts 191°
2026-05-07 13:41 33.03474 130.74426 20491 ft 374 kts 191°
2026-05-07 13:41 33.00883 130.74091 20995 ft 378 kts 192°
2026-05-07 13:42 32.98257 130.73755 21488 ft 382 kts 191°
2026-05-07 13:42 32.95626 130.73425 21967 ft 385 kts 191°
2026-05-07 13:42 32.92912 130.73094 22424 ft 390 kts 192°
2026-05-07 13:42 32.90232 130.72766 22874 ft 394 kts 192°
2026-05-07 13:43 32.87485 130.72433 23368 ft 397 kts 191°
2026-05-07 13:43 32.84699 130.72096 23904 ft 399 kts 191°
2026-05-07 13:43 32.81927 130.71764 24388 ft 403 kts 192°
2026-05-07 13:43 32.79154 130.71426 24829 ft 407 kts 192°
2026-05-07 13:44 32.76300 130.71080 25295 ft 410 kts 191°
2026-05-07 13:44 32.73472 130.70737 25761 ft 413 kts 191°
2026-05-07 13:44 32.70602 130.70389 26218 ft 416 kts 191°
2026-05-07 13:44 32.67715 130.70039 26672 ft 418 kts 191°
2026-05-07 13:45 32.64823 130.69688 27106 ft 421 kts 191°
2026-05-07 13:45 32.61895 130.69336 27509 ft 424 kts 191°
2026-05-07 13:45 32.58946 130.68979 27882 ft 427 kts 191°
2026-05-07 13:45 32.55973 130.68619 28249 ft 429 kts 192°
2026-05-07 13:46 32.53012 130.68260 28617 ft 432 kts 192°
2026-05-07 13:46 32.50037 130.67902 29019 ft 432 kts 192°
2026-05-07 13:46 32.47041 130.67541 29510 ft 431 kts 192°
2026-05-07 13:46 32.44055 130.67181 30000 ft 429 kts 192°
2026-05-07 13:47 32.41089 130.66823 30427 ft 429 kts 192°
2026-05-07 13:47 32.38130 130.66464 30831 ft 428 kts 192°
2026-05-07 13:47 32.35178 130.66107 31217 ft 428 kts 192°
2026-05-07 13:47 32.32204 130.65747 31608 ft 427 kts 192°
2026-05-07 13:48 32.29229 130.65389 31994 ft 426 kts 192°
2026-05-07 13:48 32.26291 130.65034 32380 ft 425 kts 192°
2026-05-07 13:48 32.23327 130.64679 32757 ft 424 kts 192°
2026-05-07 13:48 32.20374 130.64325 33083 ft 424 kts 192°
2026-05-07 13:49 32.17477 130.63979 33410 ft 424 kts 192°
2026-05-07 13:49 32.14530 130.63628 33776 ft 423 kts 192°
2026-05-07 13:49 32.11579 130.63275 34144 ft 422 kts 192°
2026-05-07 13:49 32.08689 130.62929 34496 ft 421 kts 192°
2026-05-07 13:50 32.05755 130.62578 34821 ft 421 kts 192°
2026-05-07 13:50 32.02854 130.62228 35103 ft 421 kts 192°
2026-05-07 13:50 31.99933 130.61879 35406 ft 420 kts 192°
2026-05-07 13:50 31.97041 130.61536 35712 ft 420 kts 192°
2026-05-07 13:51 31.94120 130.61189 35985 ft 419 kts 193°
2026-05-07 13:51 31.88293 130.60494 35980 ft 421 kts 193°
2026-05-07 13:52 31.82451 130.59805 35963 ft 425 kts 193°
2026-05-07 13:52 31.76456 130.59079 35959 ft 435 kts 194°
2026-05-07 13:53 31.70471 130.57884 35958 ft 439 kts 199°
2026-05-07 13:53 31.64575 130.55928 35960 ft 441 kts 205°
2026-05-07 13:54 31.58820 130.53369 35956 ft 443 kts 207°
2026-05-07 13:54 31.53054 130.50825 35950 ft 445 kts 207°
2026-05-07 13:55 31.47228 130.48271 35948 ft 447 kts 207°
2026-05-07 13:55 31.41418 130.45718 35947 ft 447 kts 207°
2026-05-07 13:56 31.35561 130.43144 35946 ft 447 kts 207°
2026-05-07 13:56 31.29748 130.40595 35948 ft 447 kts 207°
2026-05-07 13:57 31.23974 130.38001 35945 ft 445 kts 209°
2026-05-07 13:57 31.18216 130.35269 35944 ft 445 kts 209°
2026-05-07 13:58 31.12445 130.32520 35946 ft 446 kts 208°
2026-05-07 13:58 31.06693 130.29808 35947 ft 446 kts 208°
2026-05-07 13:59 31.00930 130.27112 35944 ft 446 kts 208°
2026-05-07 13:59 30.95182 130.24429 35941 ft 445 kts 208°
2026-05-07 14:00 30.89451 130.21758 35938 ft 445 kts 208°
2026-05-07 14:00 30.83709 130.19106 35932 ft 436 kts 208°
2026-05-07 14:00 30.80926 130.17824 36431 ft 427 kts 208°
2026-05-07 14:01 30.78236 130.16586 37160 ft 416 kts 209°
2026-05-07 14:01 30.75543 130.15341 37552 ft 412 kts 210°
2026-05-07 14:01 30.72865 130.14092 37747 ft 412 kts 210°
2026-05-07 14:01 30.70223 130.12859 37851 ft 414 kts 210°
2026-05-07 14:02 30.67543 130.11609 37928 ft 416 kts 210°
2026-05-07 14:02 30.62180 130.09122 37937 ft 415 kts 210°
2026-05-07 14:03 30.56789 130.06630 37944 ft 420 kts 210°
2026-05-07 14:03 30.51291 130.04146 37946 ft 428 kts 209°
2026-05-07 14:04 30.45679 130.01623 37952 ft 434 kts 209°
2026-05-07 14:04 30.40020 129.99078 37963 ft 439 kts 208°
2026-05-07 14:05 30.34309 129.96516 37963 ft 444 kts 208°
2026-05-07 14:05 30.28457 129.94046 37961 ft 450 kts 207°
2026-05-07 14:06 30.22511 129.91597 37962 ft 454 kts 207°
2026-05-07 14:06 30.16535 129.89125 37968 ft 456 kts 207°
2026-05-07 14:07 30.10575 129.86658 37968 ft 456 kts 207°
2026-05-07 14:07 30.04614 129.84189 37961 ft 455 kts 207°
2026-05-07 14:08 29.98676 129.81651 37957 ft 452 kts 209°
2026-05-07 14:08 29.92810 129.78941 37956 ft 454 kts 209°
2026-05-07 14:09 29.88923 129.77148 38012 ft 453 kts 210°
2026-05-07 14:09 29.83144 129.74509 37961 ft 446 kts 210°
2026-05-07 14:10 29.77387 129.71869 37948 ft 445 kts 210°
2026-05-07 14:10 29.70337 129.68631 37943 ft 446 kts 210°
2026-05-07 14:11 29.35609 129.52742 37962 ft 449 kts 210°
2026-05-07 14:11 28.99917 129.38223 37967 ft 456 kts 208°
2026-05-07 14:12 28.64504 129.22525 37967 ft 456 kts 209°
2026-05-07 14:12 28.28727 129.07085 37963 ft 459 kts 208°
2026-05-07 14:13 27.93129 128.91148 37972 ft 461 kts 210°
2026-05-07 14:13 27.56861 128.75703 37985 ft 464 kts 207°
2026-05-07 14:14 27.23123 128.56412 38045 ft 448 kts 224°
2026-05-07 14:14 26.91543 128.32933 38012 ft 455 kts 218°
2026-05-07 14:15 26.59355 128.10365 37986 ft 457 kts 219°
2026-05-07 14:15 26.27047 127.87723 38001 ft 460 kts 218°
2026-05-07 14:16 25.92998 127.66921 37996 ft 469 kts 210°
2026-05-07 14:16 25.57640 127.48172 37990 ft 469 kts 213°
2026-05-07 14:17 25.22403 127.28923 37970 ft 473 kts 211°
2026-05-07 14:17 24.86818 127.09686 37958 ft 475 kts 211°
2026-05-07 14:18 24.51058 126.90570 37954 ft 475 kts 211°
2026-05-07 14:18 24.15570 126.71654 37956 ft 474 kts 210°
2026-05-07 14:19 23.79101 126.54501 37962 ft 475 kts 206°
2026-05-07 14:19 23.42580 126.37630 37962 ft 475 kts 207°
2026-05-07 14:20 23.05891 126.20757 37964 ft 477 kts 206°
2026-05-07 14:20 22.69143 126.03893 37956 ft 479 kts 206°
2026-05-07 14:21 22.32383 125.86899 37952 ft 478 kts 206°
2026-05-07 14:21 21.95592 125.70042 37935 ft 477 kts 206°
2026-05-07 14:22 21.58913 125.53363 37937 ft 478 kts 206°
2026-05-07 14:22 21.22143 125.36676 37940 ft 479 kts 206°
2026-05-07 14:23 20.85730 125.19180 37944 ft 476 kts 212°
2026-05-07 14:23 20.51270 124.98164 37924 ft 474 kts 211°
2026-05-07 14:24 20.16387 124.78320 37914 ft 472 kts 211°
2026-05-07 14:24 19.81849 124.58438 37918 ft 471 kts 211°
2026-05-07 14:25 19.47135 124.38672 37923 ft 471 kts 211°
2026-05-07 14:25 19.19611 124.22957 37906 ft 472 kts 211°
2026-05-07 14:26 19.13697 124.19601 37913 ft 473 kts 211°
2026-05-07 14:26 18.88227 124.05191 37923 ft 474 kts 210°
2026-05-07 14:27 18.53448 123.85639 37912 ft 474 kts 210°
2026-05-07 14:27 18.18516 123.66027 37895 ft 473 kts 210°
2026-05-07 14:28 17.83618 123.46539 37897 ft 472 kts 210°
2026-05-07 14:28 17.48552 123.27035 37890 ft 472 kts 209°
2026-05-07 14:29 17.13893 123.07841 37896 ft 472 kts 209°
2026-05-07 14:29 16.78840 122.88541 37890 ft 471 kts 208°
2026-05-07 14:30 16.43995 122.69434 37897 ft 469 kts 208°
2026-05-07 14:30 16.09359 122.50515 37902 ft 469 kts 208°
2026-05-07 14:31 15.74416 122.31509 37904 ft 468 kts 208°
2026-05-07 14:31 15.40926 122.13296 37900 ft 466 kts 208°
2026-05-07 14:32 15.35213 122.10211 37893 ft 464 kts 208°
2026-05-07 14:32 15.29529 122.07142 37895 ft 464 kts 208°
2026-05-07 14:33 15.23853 122.04076 37525 ft 461 kts 208°
2026-05-07 14:33 15.21044 122.02558 37144 ft 451 kts 208°
2026-05-07 14:33 15.18302 122.01077 36851 ft 440 kts 208°
2026-05-07 14:33 15.15667 121.99656 36563 ft 430 kts 208°
2026-05-07 14:34 15.13034 121.98235 36270 ft 424 kts 208°
2026-05-07 14:34 15.10455 121.96819 35980 ft 424 kts 211°
2026-05-07 14:34 15.08041 121.95119 35687 ft 423 kts 219°
2026-05-07 14:34 15.05888 121.93086 35397 ft 423 kts 227°
2026-05-07 14:35 15.04031 121.90763 35104 ft 424 kts 235°
2026-05-07 14:35 15.02496 121.88184 34733 ft 427 kts 243°
2026-05-07 14:35 15.01319 121.85397 34230 ft 429 kts 250°
2026-05-07 14:35 15.00525 121.82438 33582 ft 432 kts 258°
2026-05-07 14:36 15.00138 121.79379 32870 ft 433 kts 265°
2026-05-07 14:36 14.99952 121.76296 32190 ft 434 kts 266°
2026-05-07 14:36 14.99796 121.73236 31523 ft 437 kts 267°
2026-05-07 14:36 14.99639 121.70133 30838 ft 439 kts 267°
2026-05-07 14:37 14.99472 121.66960 30103 ft 442 kts 267°
2026-05-07 14:37 14.99128 121.60661 28599 ft 447 kts 268°
2026-05-07 14:37 14.98953 121.57475 27802 ft 450 kts 267°
2026-05-07 14:38 14.98778 121.54327 27273 ft 446 kts 267°
2026-05-07 14:38 14.98600 121.51176 26773 ft 441 kts 267°
2026-05-07 14:38 14.98424 121.48046 26275 ft 437 kts 267°
2026-05-07 14:38 14.98249 121.44959 25775 ft 433 kts 267°
2026-05-07 14:39 14.98073 121.41888 25277 ft 430 kts 267°
2026-05-07 14:39 14.97897 121.38814 24811 ft 424 kts 267°
2026-05-07 14:39 14.97727 121.35869 24339 ft 413 kts 267°
2026-05-07 14:39 14.97558 121.32946 23814 ft 399 kts 267°
2026-05-07 14:40 14.97400 121.30193 23355 ft 384 kts 266°
2026-05-07 14:40 14.97243 121.27488 22903 ft 370 kts 266°
2026-05-07 14:40 14.97094 121.24914 22484 ft 361 kts 266°
2026-05-07 14:40 14.96945 121.22346 22046 ft 359 kts 266°
2026-05-07 14:41 14.96795 121.19770 21614 ft 357 kts 266°
2026-05-07 14:41 14.96646 121.17224 21181 ft 357 kts 266°
2026-05-07 14:41 14.96498 121.14702 20742 ft 355 kts 267°
2026-05-07 14:41 14.96351 121.12191 20297 ft 354 kts 266°
2026-05-07 14:42 14.96202 121.09657 19857 ft 353 kts 267°
2026-05-07 14:42 14.96056 121.07175 19454 ft 351 kts 267°
2026-05-07 14:42 14.95910 121.04690 19123 ft 347 kts 267°
2026-05-07 14:42 14.95764 121.02225 18746 ft 346 kts 267°
2026-05-07 14:43 14.95618 120.99773 18371 ft 344 kts 267°
2026-05-07 14:43 14.95473 120.97337 17976 ft 342 kts 267°
2026-05-07 14:43 14.95326 120.94888 17559 ft 341 kts 267°
2026-05-07 14:43 14.95182 120.92476 17156 ft 340 kts 267°
2026-05-07 14:44 14.95038 120.90052 16769 ft 338 kts 267°
2026-05-07 14:44 14.94897 120.87684 16410 ft 335 kts 267°
2026-05-07 14:44 14.94715 120.85291 16016 ft 333 kts 260°
2026-05-07 14:44 14.93998 120.83067 15644 ft 331 kts 241°
2026-05-07 14:45 14.92637 120.81190 15289 ft 326 kts 222°
2026-05-07 14:45 14.90815 120.79856 14985 ft 319 kts 204°
2026-05-07 14:45 14.88796 120.79012 14720 ft 313 kts 199°
2026-05-07 14:45 14.86781 120.78264 14437 ft 308 kts 198°
2026-05-07 14:46 14.84790 120.77525 14152 ft 303 kts 198°
2026-05-07 14:46 14.82808 120.76777 13877 ft 299 kts 199°
2026-05-07 14:46 14.80892 120.76043 13611 ft 295 kts 199°
2026-05-07 14:46 14.79000 120.75313 13342 ft 290 kts 199°
2026-05-07 14:47 14.77131 120.74588 13087 ft 286 kts 199°
2026-05-07 14:47 14.75294 120.73873 12824 ft 282 kts 199°
2026-05-07 14:47 14.73475 120.73163 12585 ft 277 kts 199°
2026-05-07 14:47 14.71701 120.72472 12328 ft 274 kts 199°
2026-05-07 14:48 14.69929 120.71781 12024 ft 272 kts 199°
2026-05-07 14:48 14.68180 120.71100 11700 ft 271 kts 198°
2026-05-07 14:48 14.66426 120.70417 11385 ft 270 kts 198°
2026-05-07 14:48 14.64664 120.69730 11067 ft 269 kts 198°
2026-05-07 14:49 14.62927 120.69069 10846 ft 269 kts 193°
2026-05-07 14:49 14.61112 120.68948 10473 ft 261 kts 162°
2026-05-07 14:49 14.59511 120.69678 10186 ft 254 kts 146°
2026-05-07 14:49 14.58014 120.70592 9890 ft 252 kts 146°
2026-05-07 14:50 14.56493 120.71511 9598 ft 251 kts 146°
2026-05-07 14:50 14.54991 120.72407 9331 ft 250 kts 147°
2026-05-07 14:50 14.53475 120.73256 9193 ft 251 kts 155°
2026-05-07 14:50 14.51762 120.73444 9109 ft 260 kts 191°
2026-05-07 14:51 14.50156 120.72558 8847 ft 268 kts 226°
2026-05-07 14:51 14.49140 120.70960 8597 ft 269 kts 242°
2026-05-07 14:51 14.48318 120.69245 8320 ft 271 kts 243°
2026-05-07 14:51 14.47475 120.67521 8035 ft 269 kts 242°
2026-05-07 14:52 14.46610 120.65855 7764 ft 268 kts 240°
2026-05-07 14:52 14.45675 120.64207 7481 ft 268 kts 231°
2026-05-07 14:52 14.44236 120.63068 7158 ft 259 kts 193°
2026-05-07 14:52 14.42530 120.63037 6892 ft 244 kts 155°
2026-05-07 14:53 14.41084 120.63888 6671 ft 240 kts 141°
2026-05-07 14:53 14.39718 120.64871 6417 ft 242 kts 142°
2026-05-07 14:53 14.38317 120.65815 6166 ft 242 kts 143°
2026-05-07 14:53 14.36874 120.66726 5915 ft 242 kts 145°
2026-05-07 14:54 14.35440 120.67595 5657 ft 241 kts 146°
2026-05-07 14:54 14.34098 120.68568 5341 ft 236 kts 126°
2026-05-07 14:54 14.33519 120.70058 5051 ft 225 kts 89°
2026-05-07 14:54 14.33868 120.71586 4794 ft 219 kts 63°
2026-05-07 14:55 14.34610 120.72920 4578 ft 215 kts 58°
2026-05-07 14:55 14.35388 120.74199 4381 ft 213 kts 58°
2026-05-07 14:55 14.36168 120.75502 4184 ft 214 kts 59°
2026-05-07 14:55 14.36922 120.76799 3989 ft 214 kts 60°
2026-05-07 14:56 14.37666 120.78110 3799 ft 214 kts 60°
2026-05-07 14:56 14.38411 120.79447 3600 ft 213 kts 61°
2026-05-07 14:56 14.39127 120.80743 3402 ft 212 kts 61°
2026-05-07 14:56 14.39856 120.82069 3271 ft 211 kts 61°
2026-05-07 14:57 14.40577 120.83379 3298 ft 212 kts 61°
2026-05-07 14:57 14.41297 120.84689 3232 ft 212 kts 61°
2026-05-07 14:57 14.42026 120.86012 2981 ft 212 kts 61°
2026-05-07 14:57 14.42746 120.87315 2712 ft 210 kts 61°
2026-05-07 14:58 14.43453 120.88594 2447 ft 203 kts 61°
2026-05-07 14:58 14.44133 120.89823 2188 ft 196 kts 60°
2026-05-07 14:58 14.44781 120.90993 2047 ft 179 kts 61°
2026-05-07 14:58 14.45377 120.92069 1808 ft 164 kts 61°
2026-05-07 14:59 14.45918 120.93046 1568 ft 153 kts 60°
2026-05-07 14:59 14.46427 120.93962 1354 ft 142 kts 62°
2026-05-07 14:59 14.46903 120.94819 1176 ft 137 kts 61°
2026-05-07 14:59 14.47378 120.95674 1008 ft 136 kts 62°
2026-05-07 15:00 14.47848 120.96523 844 ft 135 kts 62°
2026-05-07 15:00 14.48307 120.97359 687 ft 135 kts 60°
2026-05-07 15:00 14.48777 120.98199 508 ft 135 kts 62°
2026-05-07 15:00 14.49238 120.99040 341 ft 134 kts 63°
2026-05-07 15:01 14.49704 120.99869 173 ft 134 kts 63°
2026-05-07 15:01 14.50163 121.00697 88 ft 126 kts 62°
2026-05-07 15:01 14.50535 121.01369 82 ft 83 kts 61°
2026-05-07 15:01 14.50680 121.01621 82 ft 19 kts 53°
2026-05-07 15:02 14.50769 121.01719 82 ft 18 kts 41°
2026-05-07 15:02 14.50862 121.01783 82 ft 14 kts
2026-05-07 15:02 14.50942 121.01735 82 ft 14 kts 315°
2026-05-07 15:02 14.51015 121.01659 82 ft 15 kts 314°
2026-05-07 15:03 14.51089 121.01582 82 ft 15 kts 314°
2026-05-07 15:03 14.51166 121.01503 82 ft 12 kts 314°
2026-05-07 15:03 14.51172 121.01496 82 ft 0 kts 314°
2026-05-07 15:04 14.51177 121.01492 82 ft 1 kts 314°
2026-05-07 15:04 14.51205 121.01463 82 ft 9 kts 315°
2026-05-07 15:04 14.51262 121.01430 82 ft 10 kts
2026-05-07 15:04 14.51321 121.01477 82 ft 11 kts 50°
2026-05-07 15:05 14.51376 121.01541 82 ft 12 kts 46°
2026-05-07 15:05 14.51444 121.01585 82 ft 10 kts 352°
2026-05-07 15:05 14.51501 121.01542 82 ft 10 kts 315°
2026-05-07 15:05 14.51552 121.01491 82 ft 10 kts 315°
2026-05-07 15:06 14.51603 121.01440 82 ft 10 kts 313°
2026-05-07 15:06 14.51653 121.01386 82 ft 10 kts 314°
2026-05-07 15:06 14.51711 121.01327 82 ft 12 kts 315°
2026-05-07 15:06 14.51772 121.01263 82 ft 13 kts 313°
2026-05-07 15:07 14.51839 121.01193 82 ft 14 kts 315°
2026-05-07 15:07 14.51901 121.01129 82 ft 7 kts 314°
2026-05-07 15:07 14.51938 121.01124 82 ft 6 kts 37°
2026-05-07 15:07 14.51969 121.01156 82 ft 5 kts 45°
2026-05-07 15:08 14.51988 121.01175 82 ft 1 kts 45°
2026-05-07 15:08 14.51992 121.01180 82 ft 0 kts 46°